[[{"header":{"parameterUnit":"m.s-1","parameterCategory":1,"la1":30.2991,"la2":30.254,"lo1":-89.0895,"lo2":-89.0444,"dy":0.0017,"dx":0.0017,"nx":28,"ny":28,"refTime":"2023-09-10T21:00:00:Z","depth":0,"parameterNumber":2,"parameterNumberName":"U-component_of_WINDS"},"data":[0,0,0,0,0,0,0,0,0,0,0,0,0,0,0,0,0,0,0,0,0,0,0,0,0,0,0,0,0,0,0,0,0,0,0,0,0,0,0,0,0,0,0,0,0,0,0,0,0,0,0,0,0,0,0,0,0,0,-0.4079,-0.4078,0,-0.404,-0.4039,-0.4039,-0.4072,-0.4073,-0.4075,-0.4076,-0.4032,-0.403,-0.4027,0,0,0,0,0,0,0,0,0,0,0,0,0,-0.4179,-0.4177,-0.4079,-0.4078,-0.4078,-0.404,-0.4039,-0.4039,-0.4072,-0.4073,-0.4075,-0.4077,-0.4033,-0.403,-0.4027,0,0,0,0,0,0,0,0,0,0,0,0,0,-0.4137,-0.4176,-0.4079,-0.409,-0.409,-0.404,-0.4039,-0.4039,-0.4071,-0.4073,-0.4075,-0.4077,-0.4034,-0.403,-0.4026,-0.3962,0,0,-0.4015,-0.4014,0,0,0,0,0,0,0,0,-0.4139,-0.4133,-0.4089,-0.4089,-0.409,-0.4063,-0.4058,-0.4013,-0.4071,-0.4078,-0.4076,-0.4078,-0.404,-0.4036,-0.4024,-0.396,-0.3958,-0.4015,-0.4013,-0.4011,-0.401,0,0,0,0,0,0,0,-0.4142,-0.4135,-0.4063,-0.4088,-0.4089,-0.4096,-0.4092,-0.405,-0.4048,-0.4078,-0.408,-0.4075,-0.4041,-0.4028,-0.4023,-0.3957,-0.4015,-0.4012,-0.4009,-0.4008,-0.3838,-0.3835,0,0,0,0,0,0,-0.4144,-0.4137,-0.4065,-0.4062,-0.412,-0.4092,-0.4088,-0.4069,-0.4049,-0.4048,-0.4074,-0.4077,-0.4033,-0.4028,-0.4022,-0.3944,-0.4011,-0.4008,-0.4005,-0.384,-0.3837,-0.3835,0,0,0,0,0,0,-0.4146,-0.4138,-0.4066,-0.41,-0.4092,-0.4088,-0.4067,-0.4067,-0.4054,-0.4045,-0.4045,-0.4061,-0.4034,-0.4027,-0.3977,-0.3943,-0.4006,-0.4003,-0.3843,-0.3839,-0.3836,-0.3788,0,0,0,0,0,0,-0.4149,-0.4138,-0.4114,-0.41,-0.409,-0.4022,-0.4065,-0.4065,-0.4048,-0.4052,-0.4033,-0.4032,-0.4035,-0.3982,-0.3973,-0.3939,-0.4,-0.3845,-0.3841,-0.3837,-0.3793,-0.3784,-0.3776,0,0,0,0,0,-0.4152,-0.4102,-0.4113,-0.4104,-0.406,-0.402,-0.4015,-0.4021,-0.4045,-0.4021,-0.4015,-0.4032,-0.3949,-0.3977,-0.3967,-0.3931,-0.3848,-0.3842,-0.3837,-0.3797,-0.3785,-0.3776,0,0,0,0,0,0,-0.4111,-0.41,-0.4112,-0.4055,-0.4039,-0.4026,-0.3995,-0.4009,-0.3984,-0.3989,-0.3997,-0.3992,-0.3939,-0.393,-0.3962,-0.3867,-0.3902,-0.3894,-0.3874,-0.3864,-0.3855,-0.3857,-0.3997,0,0,0,0,0,-0.4096,-0.4065,-0.4057,-0.4008,-0.3999,-0.3998,-0.3981,-0.3988,-0.397,-0.3963,-0.3954,-0.3935,-0.3905,-0.3884,-0.3856,-0.3793,-0.3788,-0.3763,-0.3755,-0.3748,-0.374,-0.3705,-0.3694,-0.3817,-0.3818,-0.3818,0,0,-0.4062,-0.4053,-0.4033,-0.3999,-0.3987,-0.3954,-0.3992,-0.3956,-0.3931,-0.3957,-0.3909,-0.3902,-0.3881,-0.3824,-0.3798,-0.3815,-0.3706,-0.3741,-0.3736,-0.3732,-0.3699,-0.3687,-0.3677,-0.3814,-0.3815,-0.3815,0,0,-0.3985,-0.3976,-0.3933,-0.3921,-0.3902,-0.3903,-0.3893,-0.3878,-0.3874,-0.3827,-0.3845,-0.3816,-0.3763,-0.3748,-0.3733,-0.3651,-0.3665,-0.3641,-0.3596,-0.3561,-0.3552,-0.3543,-0.3512,-0.3501,-0.3635,-0.3634,-0.3634,0,-0.3946,-0.3899,-0.3909,-0.3872,-0.3856,-0.388,-0.3836,-0.3823,-0.3795,-0.3783,-0.3803,-0.3738,-0.3726,-0.3664,-0.3645,-0.3633,-0.362,-0.3642,-0.3553,-0.3544,-0.3536,-0.3506,-0.3495,-0.3632,-0.3632,-0.3632,-0.3632,0,-0.3851,-0.3818,-0.3785,-0.3759,-0.374,-0.3699,-0.3703,-0.3682,-0.369,-0.3688,-0.3638,-0.3625,-0.3594,-0.3581,-0.3588,-0.352,-0.3531,-0.3552,-0.3586,-0.3521,-0.3493,-0.3482,-0.3627,-0.3628,-0.3629,-0.363,0,0,-0.3744,-0.3726,-0.3714,-0.3702,-0.3684,-0.3658,-0.3618,-0.3589,-0.357,-0.3551,-0.3517,-0.3472,-0.3491,-0.3475,-0.3481,-0.3451,-0.3385,-0.3475,-0.3475,-0.3457,-0.3307,-0.329,-0.3277,-0.3396,-0.3394,-0.3392,-0.3309,0,-0.3665,-0.3597,-0.3605,-0.354,-0.3508,-0.3531,-0.3496,-0.3481,-0.3478,-0.345,-0.3447,-0.3415,-0.3443,-0.3433,-0.3405,-0.3399,-0.3355,-0.3406,-0.3362,-0.336,-0.3364,-0.3263,-0.3245,-0.3167,-0.3298,-0.3296,-0.3295,0,-0.3563,-0.3541,-0.3472,-0.3459,-0.3446,-0.3415,-0.3389,-0.3363,-0.3345,-0.3345,-0.3327,-0.3339,-0.3298,-0.3335,-0.3278,-0.3312,-0.3295,-0.3289,-0.3287,-0.3281,-0.3322,-0.3252,-0.3142,-0.313,-0.3278,-0.328,-0.3281,0,-0.3489,-0.3443,-0.3396,-0.3386,-0.3369,-0.3347,-0.3339,-0.3324,-0.3306,-0.3283,-0.3271,-0.3243,-0.3227,-0.3205,-0.3208,-0.3235,-0.3149,-0.3187,-0.3146,-0.3146,-0.3125,-0.3126,-0.3008,-0.3118,-0.3118,-0.3118,-0.3118,0,-0.3399,-0.3355,-0.3363,-0.3333,-0.3285,-0.3296,-0.3247,-0.3242,-0.3229,-0.3198,-0.3216,-0.3186,-0.3194,-0.3164,-0.3167,-0.3118,-0.3111,-0.3108,-0.3109,-0.3105,-0.3105,-0.3092,-0.3097,-0.3115,-0.3116,-0.3116,-0.3117,0,-0.3307,-0.3311,-0.3261,-0.325,-0.3247,-0.3211,-0.3202,-0.3173,-0.3173,-0.3134,-0.3125,-0.3123,-0.3089,-0.3091,-0.3053,-0.3054,-0.2993,-0.3002,-0.2999,-0.3,-0.2958,-0.2961,-0.2827,-0.2809,-0.2932,-0.2931,-0.293,0,-0.3248,-0.3215,-0.3202,-0.3183,-0.3174,-0.3143,-0.3125,-0.3135,-0.3115,-0.3093,-0.3067,-0.3035,-0.301,-0.2954,-0.2949,-0.2919,-0.2925,-0.288,-0.2921,-0.2918,-0.2922,-0.2923,-0.2919,-0.2871,-0.287,-0.2869,-0.2868,0,-0.3141,-0.3145,-0.3119,-0.3093,-0.3072,-0.3052,-0.3034,-0.3017,-0.3024,-0.3001,-0.2967,-0.2948,-0.2909,-0.2876,-0.2848,-0.2839,-0.2853,-0.2856,-0.2844,-0.2838,-0.2838,-0.2836,-0.2975,-0.2858,-0.2859,-0.286,-0.286,-0.286,-0.3063,-0.3034,-0.302,-0.2991,-0.2979,-0.2961,-0.2934,-0.2931,-0.2903,-0.2873,-0.288,-0.2841,-0.2825,-0.2789,-0.2777,-0.2746,-0.2762,-0.2746,-0.2741,-0.2737,-0.2731,-0.2845,-0.2741,-0.2742,-0.2742,-0.2742,-0.2742,0,-0.2955,-0.2948,-0.2921,-0.2895,-0.2872,-0.289,-0.2871,-0.285,-0.2816,-0.28,-0.2775,-0.2736,-0.2704,-0.2697,-0.2667,-0.2644,-0.2649,-0.2635,-0.2635,-0.2633,-0.2719,-0.2731,-0.2631,-0.2631,-0.2631,-0.2631,-0.2631,-0.2631,-0.2896,-0.2849,-0.2851,-0.2798,-0.279,-0.2754,-0.2741,-0.2725,-0.2712,-0.2668,-0.2642,-0.2639,-0.2626,-0.2595,-0.2566,-0.2565,-0.2552,-0.2534,-0.2535,-0.2616,-0.2627,-0.2637,-0.2648,-0.2532,-0.2532,-0.2451,-0.245,-0.2449]},{"header":{"parameterUnit":"m.s-1","parameterCategory":1,"la1":30.2991,"la2":30.254,"lo1":-89.0895,"lo2":-89.0444,"dy":0.0017,"dx":0.0017,"nx":28,"ny":28,"refTime":"2023-09-10T21:00:00:Z","depth":0,"parameterNumber":3,"parameterNumberName":"V-component_of_WINDS"},"data":[0,0,0,0,0,0,0,0,0,0,0,0,0,0,0,0,0,0,0,0,0,0,0,0,0,0,0,0,0,0,0,0,0,0,0,0,0,0,0,0,0,0,0,0,0,0,0,0,0,0,0,0,0,0,0,0,0,0,1.0116,1.0116,0,1.0144,1.0144,1.0144,1.0148,1.0148,1.0148,1.0148,1.0178,1.0179,1.018,0,0,0,0,0,0,0,0,0,0,0,0,0,1.0068,1.0069,1.0116,1.0116,1.0116,1.0144,1.0144,1.0144,1.0148,1.0148,1.0148,1.0148,1.0177,1.0179,1.018,0,0,0,0,0,0,0,0,0,0,0,0,0,1.0092,1.007,1.0116,1.0122,1.0123,1.0144,1.0144,1.0145,1.0149,1.0148,1.0148,1.0147,1.0177,1.0178,1.018,1.0197,0,0,1.0185,1.0185,0,0,0,0,0,0,0,0,1.0091,1.0094,1.0121,1.0121,1.0122,1.0142,1.0138,1.0162,1.0149,1.0139,1.0148,1.0147,1.0166,1.0169,1.0175,1.0199,1.02,1.0185,1.0186,1.0187,1.0187,0,0,0,0,0,0,0,1.0089,1.0093,1.0127,1.0121,1.0122,1.0124,1.0127,1.0143,1.0154,1.014,1.014,1.0143,1.0167,1.0173,1.0176,1.0201,1.0185,1.0186,1.0187,1.0188,1.0242,1.0243,0,0,0,0,0,0,1.0086,1.0091,1.0126,1.0128,1.0105,1.0125,1.0128,1.0136,1.0154,1.0157,1.0143,1.0143,1.0171,1.0174,1.0177,1.0199,1.0187,1.0188,1.0189,1.0242,1.0242,1.0243,0,0,0,0,0,0,1.0085,1.0089,1.0125,1.011,1.0114,1.0126,1.0135,1.0137,1.0143,1.0157,1.0159,1.0148,1.0171,1.0174,1.0192,1.02,1.0189,1.019,1.0241,1.0242,1.0242,1.0244,0,0,0,0,0,0,1.0084,1.0089,1.0095,1.011,1.0115,1.0139,1.0136,1.0138,1.0146,1.0146,1.0162,1.0164,1.0171,1.019,1.0194,1.0202,1.0191,1.024,1.0241,1.0242,1.0243,1.0244,1.0246,0,0,0,0,0,1.0082,1.0094,1.0095,1.0099,1.0123,1.014,1.0143,1.015,1.0147,1.0153,1.0162,1.0164,1.0199,1.0192,1.0196,1.0205,1.024,1.0241,1.0242,1.0242,1.0244,1.0246,0,0,0,0,0,0,1.0079,1.0096,1.0097,1.0114,1.0126,1.014,1.0149,1.0151,1.0164,1.0163,1.0172,1.0175,1.0193,1.0201,1.0193,1.0224,1.0219,1.0221,1.0218,1.022,1.0221,1.0219,1.0193,0,0,0,0,0,1.0081,1.0093,1.0107,1.0121,1.0126,1.0137,1.0144,1.0149,1.0161,1.0166,1.0176,1.0189,1.0203,1.0212,1.0225,1.0244,1.0249,1.0253,1.0254,1.0255,1.0257,1.0269,1.0271,1.0246,1.0246,1.0246,0,0,1.0084,1.0095,1.0101,1.012,1.013,1.0143,1.0141,1.0154,1.0164,1.0168,1.0186,1.0194,1.0209,1.0228,1.0237,1.0235,1.0265,1.0256,1.0257,1.0258,1.027,1.0273,1.0275,1.0247,1.0247,1.0247,0,0,1.0096,1.0105,1.0118,1.0128,1.0142,1.0149,1.0152,1.0167,1.0173,1.0191,1.0194,1.0207,1.023,1.0241,1.0249,1.0268,1.027,1.0272,1.0279,1.0291,1.0293,1.0295,1.0302,1.0305,1.0274,1.0274,1.0274,0,1.0098,1.0118,1.0125,1.0138,1.0147,1.0151,1.0165,1.0175,1.0193,1.0199,1.0197,1.0227,1.0237,1.026,1.0264,1.0271,1.0276,1.027,1.0292,1.0294,1.0295,1.0303,1.0306,1.0274,1.0274,1.0274,1.0274,0,1.012,1.0134,1.0142,1.016,1.017,1.0183,1.0194,1.0203,1.0207,1.0215,1.0234,1.0246,1.0263,1.0269,1.0272,1.0292,1.0291,1.029,1.0285,1.0298,1.0305,1.0308,1.0274,1.0274,1.0274,1.0274,0,0,1.0131,1.0153,1.0156,1.0165,1.0181,1.0192,1.0207,1.0223,1.0232,1.0244,1.0258,1.0278,1.0278,1.0288,1.0293,1.0304,1.0319,1.0302,1.0303,1.0305,1.0343,1.0344,1.0347,1.0321,1.0321,1.0322,1.0342,0,1.0145,1.0171,1.0179,1.0201,1.0214,1.0219,1.0232,1.0244,1.0253,1.0266,1.0275,1.029,1.0288,1.0294,1.0305,1.0315,1.0327,1.0313,1.0334,1.0335,1.0331,1.035,1.0351,1.0369,1.0345,1.0345,1.0346,0,1.0166,1.0179,1.0202,1.0219,1.0225,1.0236,1.0253,1.0265,1.028,1.0285,1.0297,1.0301,1.0318,1.0313,1.0337,1.0328,1.0337,1.0344,1.0345,1.0347,1.0341,1.0354,1.0375,1.0378,1.035,1.0349,1.0349,0,1.0172,1.0196,1.0214,1.0221,1.024,1.0248,1.0257,1.0271,1.0281,1.0296,1.0303,1.0319,1.0328,1.0341,1.0351,1.0346,1.0375,1.037,1.0381,1.0381,1.0387,1.0386,1.041,1.0392,1.0392,1.0392,1.0392,0,1.0188,1.0202,1.0217,1.0228,1.0244,1.0253,1.027,1.0279,1.0292,1.0306,1.0311,1.0324,1.0336,1.035,1.0358,1.0378,1.0382,1.0388,1.039,1.0387,1.0387,1.0394,1.0393,1.0392,1.0392,1.0392,1.0392,0,1.0198,1.0208,1.0227,1.0245,1.0249,1.0261,1.0276,1.0288,1.0297,1.0314,1.0318,1.0332,1.035,1.0361,1.0384,1.0389,1.0411,1.0412,1.0406,1.0407,1.0417,1.0416,1.0447,1.0452,1.0429,1.043,1.043,0,1.0207,1.0218,1.0237,1.0247,1.0255,1.027,1.028,1.0291,1.0301,1.032,1.0329,1.0347,1.0362,1.0391,1.0404,1.0421,1.0424,1.0433,1.0426,1.0424,1.0425,1.0424,1.0426,1.0434,1.0435,1.0435,1.0435,0,1.0223,1.0228,1.0243,1.0259,1.0272,1.0285,1.0299,1.0306,1.0319,1.0331,1.0349,1.0361,1.0384,1.0403,1.0422,1.0432,1.0436,1.0437,1.0441,1.0439,1.0435,1.0438,1.041,1.0436,1.0436,1.0436,1.0436,1.0436,1.0234,1.0245,1.026,1.0276,1.0288,1.0301,1.0313,1.0323,1.0339,1.0358,1.0364,1.0383,1.04,1.0426,1.0436,1.0452,1.0451,1.0456,1.0457,1.0459,1.0459,1.0432,1.0456,1.0456,1.0456,1.0456,1.0456,0,1.0251,1.0262,1.0276,1.0296,1.0309,1.0311,1.0327,1.0338,1.0355,1.037,1.0385,1.0407,1.0425,1.044,1.0459,1.047,1.0472,1.0474,1.0474,1.0477,1.0459,1.0454,1.0472,1.0472,1.0472,1.0472,1.0472,1.0472,1.0262,1.028,1.0287,1.0313,1.0323,1.0342,1.0351,1.0364,1.0376,1.04,1.0415,1.0425,1.044,1.0461,1.0478,1.0482,1.0489,1.0492,1.0496,1.0479,1.0478,1.0476,1.0472,1.0493,1.0493,1.0513,1.0513,1.0513]}]]